Flag Weather past 2 weeks in Stockholm, Sweden

Now
43 °F

Passing clouds.


Feels Like: 39 °F
Forecast: 42 / 46 °F
Wind: 7 mph from Southeast

Location: Stockholm Bromma Airport

Current Time: Nov 23, 2014 at 3:33:32 PM

Latest Report: Nov 23, 2014 at 2:50 PM


Visibility: N/A

Pressure: 30.42 "Hg

Humidity: 81%

Dew point: 37 °F

Location of StockholmLocation

Historic Weather in Stockholm — Graph

°F

Stockholm temperature yesterday

Maximum temperature yesterday: 37 °F (at 12:20 AM)
Minimum temperature yesterday: 36 °F (at 12:50 AM)
Average temperature yesterday: 37 °F

Past Weeks' High & Low Weather Summary

 TemperatureHumidityPressure
High50 °F (Nov 10, 3:20 PM)100% (Nov 8, 7:20 PM)30.48 "Hg (Nov 8, 7:20 PM)
Low34 °F (Nov 9, 7:50 AM)57% (Nov 18, 5:50 PM)29.77 "Hg (Nov 10, 10:50 PM)
Average42 °F87%30.21 "Hg
* Reported Nov 8 2:20 PM — Nov 23 2:20 PM, Stockholm, Weather by CustomWeather, © 2014

Note: Actual official high and low records may vary slightly from our data, if they occured in-between our weather recording intervals... More about our weather records

Advertising

Stockholm weather history for previous 24 hours

 ConditionsComfort  
Time TempWeatherWind HumidityBarometerVisibility
2:20 PM
Nov 23
45 °FSunny.10 mph76%30.42 "Hg10 mi
1:50 PM45 °FSunny.9 mph76%30.42 "Hg10 mi
1:20 PM45 °FPartly sunny.10 mph76%30.42 "HgN/A
12:50 PM45 °FPartly sunny.9 mph71%30.42 "HgN/A
12:20 PM43 °FScattered clouds.7 mph87%30.42 "HgN/A
11:50 AM43 °FPartly sunny.6 mph87%30.42 "HgN/A
11:20 AM43 °FScattered clouds.6 mph87%30.42 "HgN/A
10:50 AM41 °FBroken clouds.5 mph93%30.42 "HgN/A
10:20 AM41 °FDrizzle. More clouds than sun.3 mph93%30.42 "HgN/A
9:50 AM41 °FMostly cloudy.5 mph87%30.42 "HgN/A
9:20 AM41 °FMore clouds than sun.6 mph87%30.42 "HgN/A
8:50 AM39 °FMore clouds than sun.5 mph93%30.42 "HgN/A
8:20 AM39 °FOvercast.2 mph93%30.42 "HgN/A
7:50 AM39 °FMostly cloudy.3 mph87%30.42 "HgN/A
7:20 AM37 °FOvercast.2 mph93%30.39 "HgN/A
6:50 AM39 °FOvercast.2 mph87%30.39 "HgN/A
6:20 AM39 °FOvercast.3 mph87%30.39 "HgN/A
5:50 AM39 °FOvercast.2 mph93%30.39 "HgN/A
5:20 AM37 °FOvercast.2 mph93%30.39 "HgN/A
4:50 AM37 °FOvercast.No wind93%30.39 "HgN/A
4:20 AM37 °FMostly cloudy.No wind93%30.39 "HgN/A
3:50 AM37 °FOvercast.No wind93%30.39 "HgN/A
3:20 AM37 °FOvercast.3 mph93%30.39 "HgN/A
2:50 AM37 °FOvercast.3 mph93%30.39 "HgN/A
2:20 AM37 °FOvercast.No wind93%30.39 "HgN/A
1:50 AM37 °FOvercast.No wind93%30.39 "HgN/A
1:20 AM37 °FMostly cloudy.2 mph93%30.36 "HgN/A
12:50 AM37 °FMostly cloudy.No wind93%30.36 "HgN/A
12:20 AM37 °FOvercast.No wind93%30.36 "HgN/A
11:50 PM
Nov 22
37 °FMostly cloudy.No wind93%30.36 "HgN/A
11:20 PM37 °FMostly cloudy.1 mph93%30.36 "HgN/A
10:50 PM37 °FMostly cloudy.No wind93%30.36 "HgN/A
10:20 PM37 °FOvercast.No wind93%30.36 "HgN/A
9:50 PM37 °FMostly cloudy.1 mph93%30.36 "HgN/A
9:20 PM37 °FMostly cloudy.1 mph93%30.36 "HgN/A
8:50 PM37 °FOvercast.1 mph93%30.33 "HgN/A
8:20 PM37 °FLow clouds.No wind93%30.33 "HgN/A
7:50 PM37 °FMostly cloudy.3 mph100%30.33 "HgN/A
7:20 PM37 °FLow clouds.3 mph100%30.33 "HgN/A
6:50 PM37 °FLow clouds.3 mph93%30.33 "HgN/A
6:20 PM37 °FLow clouds.3 mph93%30.30 "HgN/A
5:50 PM37 °FLow clouds.3 mph93%30.33 "HgN/A
5:20 PM37 °FMostly cloudy.3 mph93%30.30 "HgN/A
4:50 PM37 °FPassing clouds.3 mph93%30.30 "HgN/A
4:20 PM37 °FPassing clouds.No wind93%30.30 "HgN/A
3:50 PM37 °FPassing clouds.2 mph93%30.30 "HgN/A
3:20 PM37 °FPassing clouds.3 mph87%30.30 "HgN/A
Weather by CustomWeather, © 2014

See weather overviewHow to use our weather pages